AirNav   Air Wisconsin pilot careers
 
 355 users online  

5FD4 Flagler County Emergency Operations Center Heliport
Bunnell, Florida, USA


FAA INFORMATION EFFECTIVE 01 FEBRUARY 2018

Location

FAA Identifier: 5FD4
Lat/Long: 29-28-16.1000N / 081-14-39.5000W
29-28.268333N / 081-14.658333W
29.4711389 / -81.2443056
(estimated)
Elevation: 31 ft. / 9 m (estimated)
From city: 1 mile W of BUNNELL, FL
Time zone: UTC -5 (UTC -4 during Daylight Saving Time)
Zip code: 32110

Heliport Operations

Heliport use: Private use. Permission required prior to landing
Activation date: 06/2007
Control tower: no
ARTCC: JACKSONVILLE CENTER
FSS: GAINESVILLE FLIGHT SERVICE STATION
Attendance: UNATNDD
Wind indicator: yes
Segmented circle: no

Heliport Communications

WX AWOS-3 at FIN (1.9 nm E): 128.325 (386-437-7334)
WX AWOS-3 at OMN (12 nm SE): 118.475 (386-615-7084)

Nearby radio navigation aids

VOR radial/distance  VOR name  Freq  Var
OMNr326/12.2ORMOND BEACH VORTAC112.6000E
SGJr177/29.5ST AUGUSTINE VOR/DME109.4006W

 
NDB name  Hdg/Dist  Freq  Var  ID
REYNOLDS151/36.733807WRYD .-. -.-- -..

Heliport Services

Runway Information

Helipad H1

Dimensions: 55 x 55 ft. / 17 x 17 m
Surface: concrete
Latitude: 29-28.269333N
Longitude: 081-14.662167W
Elevation: 31.0 ft.
Traffic pattern: leftleft

Heliport Ownership and Management from official FAA records

Ownership: Privately-owned
Owner: FLAGLER COUNTY
1796 E. MOODY BLVD.
BUNNELL, FL 32110
Phone 386-437-0401
Manager: RAY SIEGER
201 AIRPORT RD.
PALM COAST, FL 32164
Phone (386) 313-4220

Additional Remarks

250 FT TWR 1770 FT ESE OF PAD,

Instrument Procedures

There are no published instrument procedures at 5FD4.

Some nearby airports with instrument procedures:

KFIN - Flagler Executive Airport (2 nm E)
KOMN - Ormond Beach Municipal Airport (12 nm SE)
KDAB - Daytona Beach International Airport (20 nm SE)
KDED - DeLand Municipal Airport-Sidney H Taylor Field (24 nm S)
28J - Palatka Municipal Airport - Lt. Kay Larkin Field (26 nm NW)
 
Loc | Ops | Rwys | IFR | FBO | Links
Com | Nav | Svcs | Stats | Notes

AirNav Hotels Sweepstakes
 
Area around 5FD4 (Flagler County Emergency Operations Center Heliport)
 
Road maps at: MapQuest Bing Google
 
Aerial photo
No photo
 
Sectional chart

 
Airport distance calculator
Flying to Flagler County Emergency Operations Center Heliport? Find the distance to fly.

From to 5FD4

Sunrise and sunset
Times for 20-Feb-2018
 Local
(UTC-5)
 Zulu
(UTC)
Morning civil twilight06:3711:37
Sunrise07:0112:01
Sunset18:1723:17
Evening civil twilight18:4123:41

Current date and time
Zulu (UTC)  20-Feb-2018 10:01:48
Local (UTC-5)  20-Feb-2018 05:01:48
 
METAR
KFIN 
2nm E 
200955Z AUTO 00000KT 1/4SM FG OVC017 18/18 A3032 RMK AO2 T01810178
KOMN 
12nm SE 
192250Z 12006KT 10SM SCT028 23/19 A3029
KDAB 
20nm SE 
200953Z 10003KT 9SM CLR 21/20 A3031 RMK AO2 SLP263 T02110200
TAF
KDAB 
20nm SE 
200520Z 2006/2106 09004KT P6SM FEW050 FM201500 11011KT P6SM FEW025 SCT035 FM202000 09011KT P6SM SCT035 BKN050 FM210000 11006KT P6SM FEW030 BKN045
NOTAMs
Click for the latest NOTAMs
NOTAMs are issued by the DoD/FAA and will open in a separate window not controlled by AirNav.

 

 
 

Would you like to see your business listed on this page?

 If your business provides an interesting product or service to pilots, flight crews, aircraft, or users of the Flagler County Emergency Operations Center Heliport, you should consider listing it here.  To start the listing process, click on the button below
 
Add a business
 

Other Pages about Flagler County Emergency Operations Center Heliport

Update a link
 
Copyright © AirNav, LLC. All rights reserved. Privacy Policy  Contact